Tiempo cada hora Abramkovo

Hoy, 22 Octubre, Jueves

Tiempo Temperatura Precipitaciones Viento Presión Humedad
00:00 +4°C° 0 mm 1 mps 744 mmHg 98%
01:00 +4°C° 0 mm 1 mps 744 mmHg 98%
02:00 +3°C° 0 mm 2 mps 744 mmHg 97%
03:00 +3°C° 0 mm 2 mps 744 mmHg 97%
04:00 +3°C° 0 mm 2 mps 744 mmHg 97%
05:00 +3°C° 0 mm 2 mps 743 mmHg 97%
06:00 +3°C° 0 mm 2 mps 743 mmHg 97%
07:00 +3°C° 0 mm 3 mps 743 mmHg 96%
08:00 +3°C° 0 mm 3 mps 743 mmHg 95%
09:00 +4°C° 0 mm 4 mps 742 mmHg 92%
10:00 +5°C° 0 mm 4 mps 742 mmHg 89%
11:00 +6°C° 0 mm 4 mps 742 mmHg 87%
12:00 +5°C° 0.6 mm 5 mps 741 mmHg 89%
13:00 +5°C° 0.6 mm 5 mps 740 mmHg 91%
14:00 +5°C° 0.6 mm 5 mps 740 mmHg 93%
15:00 +5°C° 0.5 mm 5 mps 739 mmHg 93%
16:00 +6°C° 0.5 mm 5 mps 738 mmHg 93%
17:00 +6°C° 0.5 mm 5 mps 737 mmHg 93%
18:00 +6°C° 0.1 mm 5 mps 737 mmHg 93%
19:00 +7°C° 0.1 mm 5 mps 736 mmHg 92%
20:00 +7°C° 0.1 mm 5 mps 736 mmHg 92%
21:00 +8°C° 0.4 mm 5 mps 735 mmHg 92%
22:00 +8°C° 0.4 mm 5 mps 734 mmHg 92%
23:00 +9°C° 0.4 mm 5 mps 734 mmHg 92%

Mañana, 23 Octubre, Viernes

Tiempo Temperatura Precipitaciones Viento Presión Humedad
00:00 +9°C° 0.3 mm 6 mps 734 mmHg 90%
01:00 +10°C° 0.3 mm 6 mps 734 mmHg 88%
02:00 +10°C° 0.3 mm 6 mps 735 mmHg 86%
03:00 +10°C° 0 mm 6 mps 735 mmHg 85%
04:00 +10°C° 0 mm 6 mps 735 mmHg 85%
05:00 +10°C° 0 mm 5 mps 735 mmHg 84%
06:00 +10°C° 0 mm 5 mps 736 mmHg 84%
07:00 +10°C° 0 mm 6 mps 736 mmHg 83%
08:00 +10°C° 0 mm 6 mps 736 mmHg 83%
09:00 +10°C° 0 mm 6 mps 736 mmHg 81%
10:00 +10°C° 0 mm 5 mps 736 mmHg 78%
11:00 +12°C° 0 mm 5 mps 737 mmHg 76%
12:00 +10°C° 0.1 mm 5 mps 736 mmHg 79%
13:00 +10°C° 0.1 mm 5 mps 736 mmHg 82%
14:00 +10°C° 0.1 mm 5 mps 736 mmHg 85%
15:00 +11°C° 1 mm 4 mps 735 mmHg 88%
16:00 +11°C° 1 mm 4 mps 735 mmHg 91%
17:00 +11°C° 1 mm 4 mps 734 mmHg 94%
18:00 +11°C° 0.4 mm 4 mps 734 mmHg 91%
19:00 +10°C° 0.4 mm 4 mps 734 mmHg 88%
20:00 +9°C° 0.4 mm 5 mps 734 mmHg 86%
21:00 +9°C° 0 mm 5 mps 734 mmHg 86%
22:00 +8°C° 0 mm 5 mps 734 mmHg 87%
23:00 +8°C° 0 mm 5 mps 735 mmHg 88%

Pasado mañana, 24 Octubre, Sábado

Tiempo Temperatura Precipitaciones Viento Presión Humedad
00:00 +8°C° 0 mm 4 mps 735 mmHg 87%
01:00 +8°C° 0 mm 4 mps 736 mmHg 86%
02:00 +8°C° 0 mm 4 mps 736 mmHg 85%
03:00 +8°C° 0 mm 4 mps 736 mmHg 85%
04:00 +8°C° 0 mm 4 mps 737 mmHg 84%
05:00 +9°C° 0 mm 3 mps 737 mmHg 84%
06:00 +9°C° 0 mm 3 mps 737 mmHg 85%
07:00 +8°C° 0 mm 3 mps 738 mmHg 86%
08:00 +8°C° 0 mm 3 mps 738 mmHg 87%
09:00 +8°C° 0 mm 4 mps 738 mmHg 84%
10:00 +8°C° 0 mm 4 mps 738 mmHg 81%
11:00 +10°C° 0 mm 4 mps 739 mmHg 78%
12:00 +10°C° 0 mm 4 mps 739 mmHg 77%
13:00 +10°C° 0 mm 4 mps 739 mmHg 76%
14:00 +10°C° 0 mm 3 mps 739 mmHg 76%
15:00 +9°C° 0 mm 3 mps 739 mmHg 81%
16:00 +8°C° 0 mm 3 mps 739 mmHg 86%
17:00 +8°C° 0 mm 2 mps 739 mmHg 91%
18:00 +7°C° 0 mm 2 mps 739 mmHg 90%
19:00 +7°C° 0 mm 2 mps 739 mmHg 89%
20:00 +7°C° 0 mm 2 mps 739 mmHg 89%
21:00 +7°C° 0 mm 2 mps 739 mmHg 89%
22:00 +6°C° 0 mm 2 mps 739 mmHg 89%
23:00 +6°C° 0 mm 2 mps 739 mmHg 89%

, 25 Octubre, Domingo

Tiempo Temperatura Precipitaciones Viento Presión Humedad
00:00 +6°C° 0 mm 2 mps 739 mmHg 89%
01:00 +6°C° 0 mm 2 mps 739 mmHg 90%
02:00 +6°C° 0 mm 2 mps 739 mmHg 90%
03:00 +6°C° 0.2 mm 2 mps 739 mmHg 91%
04:00 +6°C° 0.2 mm 2 mps 739 mmHg 92%
05:00 +6°C° 0.2 mm 2 mps 738 mmHg 93%
06:00 +7°C° 0.2 mm 2 mps 739 mmHg 93%
07:00 +7°C° 0.2 mm 3 mps 739 mmHg 93%
08:00 +8°C° 0.2 mm 3 mps 739 mmHg 93%
09:00 +7°C° 0 mm 4 mps 739 mmHg 90%
10:00 +7°C° 0 mm 5 mps 740 mmHg 86%
11:00 +7°C° 0 mm 5 mps 740 mmHg 82%
12:00 +7°C° 0 mm 5 mps 741 mmHg 81%
13:00 +7°C° 0 mm 5 mps 742 mmHg 80%
14:00 +7°C° 0 mm 5 mps 742 mmHg 80%
15:00 +7°C° 0 mm 4 mps 743 mmHg 81%
16:00 +6°C° 0 mm 4 mps 743 mmHg 83%
17:00 +7°C° 0 mm 3 mps 744 mmHg 84%
18:00 +5°C° 0 mm 3 mps 745 mmHg 87%
19:00 +5°C° 0 mm 2 mps 745 mmHg 90%
20:00 +5°C° 0 mm 2 mps 746 mmHg 92%
21:00 +4°C° 0 mm 2 mps 746 mmHg 93%
22:00 +4°C° 0 mm 2 mps 747 mmHg 94%
23:00 +4°C° 0 mm 2 mps 747 mmHg 95%

25 Octubre, Domingo

Tiempo Temperatura Precipitaciones Viento Presión Humedad
00:00 +6°C° 0 mm 2 mps 739 mmHg 89%
01:00 +6°C° 0 mm 2 mps 739 mmHg 90%
02:00 +6°C° 0 mm 2 mps 739 mmHg 90%
03:00 +6°C° 0.2 mm 2 mps 739 mmHg 91%
04:00 +6°C° 0.2 mm 2 mps 739 mmHg 92%
05:00 +6°C° 0.2 mm 2 mps 738 mmHg 93%
06:00 +7°C° 0.2 mm 2 mps 739 mmHg 93%
07:00 +7°C° 0.2 mm 3 mps 739 mmHg 93%
08:00 +8°C° 0.2 mm 3 mps 739 mmHg 93%
09:00 +7°C° 0 mm 4 mps 739 mmHg 90%
10:00 +7°C° 0 mm 5 mps 740 mmHg 86%
11:00 +7°C° 0 mm 5 mps 740 mmHg 82%
12:00 +7°C° 0 mm 5 mps 741 mmHg 81%
13:00 +7°C° 0 mm 5 mps 742 mmHg 80%
14:00 +7°C° 0 mm 5 mps 742 mmHg 80%
15:00 +7°C° 0 mm 4 mps 743 mmHg 81%
16:00 +6°C° 0 mm 4 mps 743 mmHg 83%
17:00 +7°C° 0 mm 3 mps 744 mmHg 84%
18:00 +5°C° 0 mm 3 mps 745 mmHg 87%
19:00 +5°C° 0 mm 2 mps 745 mmHg 90%
20:00 +5°C° 0 mm 2 mps 746 mmHg 92%
21:00 +4°C° 0 mm 2 mps 746 mmHg 93%
22:00 +4°C° 0 mm 2 mps 747 mmHg 94%
23:00 +4°C° 0 mm 2 mps 747 mmHg 95%

26 Octubre, Lunes

Tiempo Temperatura Precipitaciones Viento Presión Humedad
00:00 +3°C° 0 mm 2 mps 747 mmHg 95%
01:00 +4°C° 0 mm 1 mps 748 mmHg 96%
02:00 +4°C° 0 mm 1 mps 748 mmHg 96%
03:00 +4°C° 0 mm 1 mps 748 mmHg 96%
04:00 +4°C° 0 mm 1 mps 749 mmHg 96%
05:00 +4°C° 0 mm 1 mps 749 mmHg 96%
06:00 +4°C° 0 mm 1 mps 749 mmHg 96%
07:00 +4°C° 0 mm 1 mps 749 mmHg 95%
08:00 +5°C° 0 mm 1 mps 750 mmHg 95%
09:00 +6°C° 0 mm 1 mps 750 mmHg 90%
10:00 +7°C° 0 mm 1 mps 750 mmHg 86%
11:00 +9°C° 0 mm 1 mps 750 mmHg 81%
12:00 +8°C° 0 mm 2 mps 750 mmHg 80%
13:00 +8°C° 0 mm 2 mps 750 mmHg 79%
14:00 +9°C° 0 mm 2 mps 750 mmHg 78%
15:00 +8°C° 0 mm 2 mps 750 mmHg 82%
16:00 +7°C° 0 mm 2 mps 750 mmHg 86%
17:00 +6°C° 0 mm 1 mps 750 mmHg 91%
18:00 +5°C° 0 mm 2 mps 751 mmHg 92%
19:00 +5°C° 0 mm 2 mps 751 mmHg 92%
20:00 +4°C° 0 mm 2 mps 751 mmHg 93%
21:00 +4°C° 0 mm 2 mps 751 mmHg 93%
22:00 +4°C° 0 mm 2 mps 751 mmHg 93%
23:00 +4°C° 0 mm 2 mps 751 mmHg 93%

27 Octubre, Martes

Tiempo Temperatura Precipitaciones Viento Presión Humedad
00:00 +3°C° 0 mm 2 mps 751 mmHg 94%
01:00 +3°C° 0 mm 2 mps 751 mmHg 94%
02:00 +3°C° 0 mm 2 mps 751 mmHg 94%
03:00 +2°C° 0 mm 3 mps 751 mmHg 94%
04:00 +2°C° 0 mm 3 mps 751 mmHg 94%
05:00 +2°C° 0 mm 3 mps 751 mmHg 94%
06:00 +2°C° 0 mm 3 mps 751 mmHg 92%
07:00 +2°C° 0 mm 3 mps 751 mmHg 90%
08:00 +3°C° 0 mm 4 mps 750 mmHg 89%
09:00 +4°C° 0 mm 4 mps 750 mmHg 85%
10:00 +5°C° 0 mm 4 mps 750 mmHg 81%
11:00 +6°C° 0 mm 4 mps 750 mmHg 77%
12:00 +6°C° 0 mm 4 mps 750 mmHg 78%
13:00 +6°C° 0 mm 4 mps 750 mmHg 78%
14:00 +6°C° 0 mm 4 mps 750 mmHg 79%
15:00 +6°C° 0 mm 4 mps 749 mmHg 80%
16:00 +6°C° 0 mm 4 mps 749 mmHg 81%
17:00 +6°C° 0 mm 4 mps 749 mmHg 83%
18:00 +6°C° 0.1 mm 4 mps 749 mmHg 84%
19:00 +6°C° 0.1 mm 4 mps 749 mmHg 85%
20:00 +6°C° 0.1 mm 4 mps 748 mmHg 86%
21:00 +6°C° 0 mm 4 mps 748 mmHg 85%
22:00 +6°C° 0 mm 4 mps 748 mmHg 85%
23:00 +6°C° 0 mm 4 mps 748 mmHg 84%
Mostrar más

Necesitamos Su Consentimiento

Meteoprog y nuestros Proveedores de Servicios pueden almacenar y acceder a sus datos personales como cookies, identificadores de dispositivo u otras tecnologías similares de su dispositivo y procesar dichos datos para personalizar contenido y anuncios, además de ofrecer funciones de redes sociales y analizar el tráfico.

  • Almacenar y/o acceder a información en su dispositivo

    Se puede almacenar o acceder a cookies, identificadores de dispositivo u otra información de su dispositivo para los fines anteriormente indicados.

  • Anuncios y contenido personalizados, medición de anuncios y contenido, percepciones del público, y desarrollo de productos

    Los anuncios y el contenido pueden personalizarse en base a su perfil. Se pueden añadir más datos para personalizar mejor los anuncios y contenidos. Se puede medir el rendimiento de los anuncios y contenidos. Se puede obtener la percepción sobre el público que ha visto los anuncios y contenidos. Dichos datos pueden usarse para desarrollar o mejorar la experiencia del usuario, sistemas y software.

Al hacer clic en ‘Estoy De Acuerdo’ usted permitirá el uso de las cookies, identificadores de dispositivo, balizas web u otras tecnologías similares indicadas. Su configuración puede cambiarse desde el navegador de su dispositivo.

Para ciertos fines, los intereses legítimos pueden ser considerados por encima del consentimiento. Puede leer más sobre ello en nuestra Política de Privacidad y Cookies.